Track STARLINK-2572 now! 10-day predictions STARLINK-2572 is classified as:
1 48372U 21038V 22185.50325652 -.00003428 00000-0 -21142-3 0 9996 2 48372 53.0552 265.9190 0001601 53.6951 306.4185 15.06384153 64569